Hourly Weather Bolshie Ermaki

Today, 20 June, Sunday

Time Temperature Precipitation Wind Pressure Humidity
00:00 +18°C° 0 mm 1 mps 748 mmHg 93%
01:00 +18°C° 0 mm 1 mps 748 mmHg 94%
02:00 +18°C° 0 mm 1 mps 748 mmHg 95%
03:00 +18°C° 0 mm 1 mps 748 mmHg 93%
04:00 +19°C° 0 mm 1 mps 748 mmHg 92%
05:00 +20°C° 0 mm 1 mps 748 mmHg 91%
06:00 +22°C° 0 mm 1 mps 748 mmHg 83%
07:00 +24°C° 0 mm 1 mps 748 mmHg 75%
08:00 +25°C° 0 mm 1 mps 748 mmHg 68%
09:00 +27°C° 0 mm 1 mps 748 mmHg 63%
10:00 +28°C° 0 mm 1 mps 748 mmHg 58%
11:00 +29°C° 0 mm 2 mps 747 mmHg 53%
12:00 +29°C° 0 mm 2 mps 747 mmHg 50%
13:00 +30°C° 0 mm 2 mps 747 mmHg 48%
14:00 +30°C° 0 mm 2 mps 747 mmHg 46%
15:00 +30°C° 0 mm 2 mps 746 mmHg 50%
16:00 +29°C° 0 mm 2 mps 746 mmHg 54%
17:00 +29°C° 0 mm 2 mps 746 mmHg 59%
18:00 +27°C° 0 mm 2 mps 746 mmHg 66%
19:00 +25°C° 0 mm 2 mps 746 mmHg 74%
20:00 +21°C° 0 mm 2 mps 746 mmHg 82%
21:00 +20°C° 0 mm 2 mps 746 mmHg 84%
22:00 +19°C° 0 mm 2 mps 746 mmHg 85%
23:00 +18°C° 0 mm 2 mps 746 mmHg 87%

Tomorrow, 21 June, Monday

Time Temperature Precipitation Wind Pressure Humidity
00:00 +19°C° 0 mm 1 mps 746 mmHg 88%
01:00 +18°C° 0 mm 1 mps 746 mmHg 90%
02:00 +18°C° 0 mm 1 mps 746 mmHg 91%
03:00 +18°C° 0 mm 1 mps 746 mmHg 90%
04:00 +19°C° 0 mm 1 mps 746 mmHg 89%
05:00 +19°C° 0 mm 1 mps 746 mmHg 88%
06:00 +20°C° 0 mm 2 mps 746 mmHg 81%
07:00 +21°C° 0 mm 2 mps 746 mmHg 74%
08:00 +24°C° 0 mm 2 mps 746 mmHg 67%
09:00 +25°C° 0 mm 2 mps 746 mmHg 61%
10:00 +27°C° 0 mm 3 mps 746 mmHg 55%
11:00 +28°C° 0 mm 3 mps 746 mmHg 49%
12:00 +29°C° 0 mm 3 mps 746 mmHg 47%
13:00 +29°C° 0 mm 3 mps 746 mmHg 45%
14:00 +30°C° 0 mm 3 mps 746 mmHg 42%
15:00 +30°C° 0 mm 3 mps 745 mmHg 47%
16:00 +29°C° 0 mm 3 mps 745 mmHg 52%
17:00 +29°C° 0 mm 2 mps 745 mmHg 57%
18:00 +27°C° 0 mm 2 mps 745 mmHg 66%
19:00 +25°C° 0 mm 2 mps 745 mmHg 75%
20:00 +23°C° 0 mm 2 mps 745 mmHg 85%
21:00 +21°C° 0 mm 2 mps 745 mmHg 88%
22:00 +20°C° 0 mm 2 mps 745 mmHg 92%
23:00 +20°C° 0 mm 2 mps 745 mmHg 95%

Day after tomorrow, 22 June, Tuesday

Time Temperature Precipitation Wind Pressure Humidity
00:00 +19°C° 0 mm 2 mps 745 mmHg 96%
01:00 +19°C° 0 mm 2 mps 745 mmHg 96%
02:00 +19°C° 0 mm 2 mps 745 mmHg 96%
03:00 +19°C° 0 mm 2 mps 745 mmHg 95%
04:00 +19°C° 0 mm 2 mps 745 mmHg 94%
05:00 +20°C° 0 mm 2 mps 745 mmHg 93%
06:00 +23°C° 0 mm 2 mps 746 mmHg 83%
07:00 +24°C° 0 mm 2 mps 746 mmHg 74%
08:00 +26°C° 0 mm 3 mps 746 mmHg 64%
09:00 +28°C° 0 mm 3 mps 746 mmHg 57%
10:00 +29°C° 0 mm 3 mps 746 mmHg 51%
11:00 +32°C° 0 mm 4 mps 746 mmHg 44%
12:00 +32°C° 0 mm 4 mps 746 mmHg 43%
13:00 +33°C° 0 mm 4 mps 746 mmHg 41%
14:00 +34°C° 0 mm 3 mps 745 mmHg 40%
15:00 +33°C° 0 mm 3 mps 745 mmHg 45%
16:00 +31°C° 0 mm 3 mps 745 mmHg 50%
17:00 +31°C° 0 mm 3 mps 745 mmHg 55%
18:00 +29°C° 0 mm 3 mps 745 mmHg 65%
19:00 +27°C° 0 mm 3 mps 745 mmHg 75%
20:00 +25°C° 0 mm 2 mps 745 mmHg 85%
21:00 +24°C° 0 mm 2 mps 745 mmHg 89%
22:00 +23°C° 0 mm 2 mps 745 mmHg 92%
23:00 +21°C° 0 mm 2 mps 746 mmHg 95%

23 June, Wednesday

Time Temperature Precipitation Wind Pressure Humidity
00:00 +21°C° 0 mm 2 mps 746 mmHg 95%
01:00 +21°C° 0 mm 2 mps 746 mmHg 96%
02:00 +20°C° 0 mm 2 mps 746 mmHg 96%
03:00 +21°C° 0 mm 2 mps 746 mmHg 95%
04:00 +22°C° 0 mm 1 mps 746 mmHg 93%
05:00 +23°C° 0 mm 1 mps 746 mmHg 92%
06:00 +24°C° 0 mm 2 mps 746 mmHg 84%
07:00 +26°C° 0 mm 2 mps 746 mmHg 75%
08:00 +28°C° 0 mm 2 mps 747 mmHg 67%
09:00 +29°C° 0 mm 3 mps 747 mmHg 60%
10:00 +31°C° 0 mm 3 mps 747 mmHg 54%
11:00 +33°C° 0 mm 3 mps 747 mmHg 48%
12:00 +34°C° 0 mm 3 mps 747 mmHg 45%
13:00 +34°C° 0 mm 3 mps 746 mmHg 42%
14:00 +34°C° 0 mm 3 mps 746 mmHg 39%
15:00 +34°C° 0 mm 3 mps 746 mmHg 44%
16:00 +33°C° 0 mm 3 mps 746 mmHg 49%
17:00 +31°C° 0 mm 3 mps 746 mmHg 54%
18:00 +29°C° 0 mm 3 mps 746 mmHg 62%
19:00 +27°C° 0 mm 2 mps 746 mmHg 70%
20:00 +25°C° 0 mm 2 mps 746 mmHg 79%
21:00 +24°C° 0 mm 2 mps 746 mmHg 80%
22:00 +23°C° 0 mm 2 mps 746 mmHg 81%
23:00 +23°C° 0 mm 2 mps 746 mmHg 82%

24 June, Thursday

Time Temperature Precipitation Wind Pressure Humidity
00:00 +22°C° 0 mm 1 mps 746 mmHg 84%
01:00 +21°C° 0 mm 1 mps 746 mmHg 86%
02:00 +21°C° 0 mm 1 mps 746 mmHg 88%
03:00 +21°C° 0 mm 1 mps 746 mmHg 86%
04:00 +22°C° 0 mm 1 mps 746 mmHg 85%
05:00 +22°C° 0 mm 1 mps 746 mmHg 84%
06:00 +24°C° 0 mm 1 mps 746 mmHg 77%
07:00 +26°C° 0 mm 1 mps 746 mmHg 70%
08:00 +28°C° 0 mm 1 mps 746 mmHg 63%
09:00 +30°C° 0 mm 1 mps 746 mmHg 57%
10:00 +31°C° 0 mm 1 mps 746 mmHg 51%
11:00 +32°C° 0 mm 1 mps 745 mmHg 45%
12:00 +34°C° 0 mm 2 mps 745 mmHg 44%
13:00 +34°C° 0 mm 2 mps 745 mmHg 44%
14:00 +34°C° 0 mm 2 mps 745 mmHg 43%
15:00 +29°C° 1.5 mm 3 mps 745 mmHg 58%
16:00 +26°C° 1.5 mm 3 mps 745 mmHg 72%
17:00 +21°C° 1.5 mm 4 mps 744 mmHg 87%
18:00 +20°C° 0.2 mm 3 mps 744 mmHg 88%
19:00 +20°C° 0.2 mm 2 mps 744 mmHg 88%
20:00 +20°C° 0.2 mm 1 mps 744 mmHg 89%
21:00 +20°C° 0 mm 1 mps 744 mmHg 87%
22:00 +20°C° 0 mm 1 mps 743 mmHg 86%
23:00 +19°C° 0 mm 2 mps 743 mmHg 84%

25 June, Friday

Time Temperature Precipitation Wind Pressure Humidity
00:00 +19°C° 0 mm 2 mps 743 mmHg 85%
01:00 +19°C° 0 mm 2 mps 743 mmHg 86%
02:00 +20°C° 0 mm 1 mps 743 mmHg 86%
03:00 +20°C° 0 mm 1 mps 743 mmHg 87%
04:00 +21°C° 0 mm 1 mps 743 mmHg 88%
05:00 +22°C° 0 mm 1 mps 743 mmHg 89%
06:00 +24°C° 0 mm 1 mps 743 mmHg 82%
07:00 +26°C° 0 mm 1 mps 743 mmHg 76%
08:00 +28°C° 0 mm 2 mps 742 mmHg 69%
09:00 +29°C° 0 mm 2 mps 742 mmHg 62%
10:00 +31°C° 0 mm 2 mps 742 mmHg 55%
11:00 +33°C° 0 mm 3 mps 742 mmHg 48%
12:00 +34°C° 0 mm 3 mps 742 mmHg 45%
13:00 +34°C° 0 mm 3 mps 742 mmHg 43%
14:00 +35°C° 0 mm 3 mps 742 mmHg 40%
15:00 +34°C° 0 mm 3 mps 741 mmHg 45%
16:00 +33°C° 0 mm 3 mps 741 mmHg 50%
17:00 +31°C° 0 mm 3 mps 740 mmHg 55%
18:00 +29°C° 0 mm 3 mps 740 mmHg 63%
19:00 +27°C° 0 mm 2 mps 741 mmHg 71%
20:00 +25°C° 0 mm 2 mps 741 mmHg 79%
21:00 +24°C° 0 mm 2 mps 741 mmHg 79%
22:00 +23°C° 0 mm 2 mps 740 mmHg 79%
23:00 +21°C° 0 mm 2 mps 740 mmHg 79%
Show more